SCP
0 0 0 0 0 0 0 0 0 0 0 0 0 0 0 0 0 0 0 0 0 0 0 0 0 0 0 0 0 0 0 0 0 0 0 0 0 0 0 0 0 0 0
0 0 0 0 0 0 0 0 0 0 0 0 0 0 0 0 0 0 0 0 0 0 0 0 0 0 0 0 0 0 0 0 0 0 0 0 0 0 0 0 0 0 0
0 0 1 1 0 0 0 0 0 0 0 0 0 0 0 0 0 0 0 0 0 0 0 0 0 0 0 0 0 0 0 0 0 0 0 0 0 0 0 0 0 0 0
0 0 1 1 1 0 0 0 0 0 0 0 0 0 0 0 0 0 0 0 0 0 0 0 0 0 0 0 0 0 0 0 0 0 0 0 0 0 0 0 0 0 0
0 1 1 1 1 0 0 0 0 0 0 0 0 0 0 0 0 0 0 0 0 0 0 0 0 0 0 0 0 0 0 0 0 0 0 0 0 0 0 0 0 0 0
1 1 1 1 1 1 0 0 0 0 0 0 0 0 0 0 0 0 0 0 0 0 0 0 0 0 0 0 0 0 0 0 0 0 0 0 0 0 0 0 0 0 0
1 1 1 1 1 1 0 0 0 0 0 0 0 0 0 0 0 0 0 0 0 0 0 0 0 0 0 0 0 0 0 0 0 0 0 0 0 0 0 0 0 0 0
1 1 1 1 1 1 0 0 0 0 0 0 0 0 0 0 0 0 0 0 0 0 0 0 0 0 0 0 0 0 0 0 0 0 0 0 0 0 0 0 0 0 0
1 1 1 1 1 1 0 0 0 0 0 0 0 0 0 0 0 0 0 0 0 0 0 0 0 0 0 0 0 0 0 0 0 0 0 0 0 0 0 0 0 0 0
1 1 1 1 1 0 0 0 0 0 0 0 0 0 0 0 0 0 0 0 0 0 0 0 0 0 0 0 0 0 0 0 0 0 0 0 0 0 0 0 0 0 0
1 1 1 1 1 0 0 0 0 0 0 0 0 0 0 0 0 0 0 0 0 0 0 0 0 0 0 0 0 0 0 0 0 0 0 0 0 0 0 0 0 0 0
1 1 1 1 0 0 0 0 0 0 0 0 0 0 0 0 0 0 0 0 0 0 0 0 0 0 0 0 0 0 0 0 0 0 0 0 0 0 0 0 0 0 0
0 0 0 0 0 0 0 0 0 0 0 0 0 0 0 0 0 0 0 0 0 0 0 0 0 0 0 0 0 0 0 0 0 0 0 0 0 0 0 0 0 0 0
0 0 0 0 0 0 0 0 0 0 0 0 0 0 0 0 0 0 0 0 0 0 0 0 0 0 0 0 0 0 0 0 0 0 0 0 0 0 0 0 0 0 0
0 0 0 0 0 0 0 0 0 0 0 0 0 0 0 0 0 0 0 0 0 0 0 0 0 0 0 0 0 0 0 0 0 0 0 0 0 0 0 0 0 0 0
0 0 0 0 0 0 0 0 0 0 0 0 0 0 0 0 0 0 0 0 0 0 0 0 0 0 0 0 0 0 0 0 0 0 0 0 0 0 0 0 0 0 0
0 0 0 0 0 0 0 0 0 0 0 0 0 0 0 0 0 0 0 0 0 0 0 0 0 0 0 0 0 0 0 0 0 0 0 0 0 0 0 0 0 0 0
0 0 0 0 0 0 0 0 0 0 0 0 0 0 0 0 0 0 0 0 0 0 0 0 0 0 0 0 0 0 0 0 0 0 0 0 0 0 0 0 0 0 0
0 0 0 0 0 0 0 0 0 0 0 0 0 0 0 0 0 0 0 0 0 0 0 0 0 0 0 0 0 0 0 0 0 0 0 0 0 0 0 0 0 0 0
0 0 0 0 0 0 0 0 0 0 0 0 0 0 0 0 0 0 0 0 0 0 0 0 0 0 0 0 0 0 0 0 0 0 0 0 0 0 0 0 0 0 0
0 0 0 0 0 0 0 0 0 0 0 0 0 0 0 0 0 0 0 0 0 0 0 0 0 0 0 0 0 0 0 0 0 0 0 0 0 0 0 0 0 0 0
0 0 0 0 0 0 0 0 0 0 0 0 0 0 0 0 0 0 0 0 0 0 0 0 0 0 0 0 0 0 0 0 0 0 0 0 0 0 0 0 0 0 0
0 0 0 0 0 0 0 0 0 0 0 0 0 0 0 0 0 0 0 0 0 0 0 0 0 0 0 0 0 0 0 0 0 0 0 0 0 0 0 0 0 0 0
0 0 0 0 0 0 0 0 0 0 0 0 0 0 0 0 0 0 0 0 0 0 0 0 0 0 0 0 0 0 0 0 0 0 0 0 0 0 0 0 0 0 0
0 0 0 0 0 0 0 0 0 0 0 0 0 0 0 0 0 0 0 0 0 0 0 0 0 0 0 0 0 0 0 0 0 0 0 0 0 0 0 0 0 0 0
0 0 0 0 0 0 0 0 0 0 0 0 0 0 0 0 0 0 0 0 0 0 0 0 0 0 0 0 0 0 0 0 0 0 0 0 0 0 0 0 0 0 0
Wind_Speed
8 9 11 11 10 10 10 9 9 9 8 8 9 9 9 9 9 9 9 9 10 10 10 10 10 10 9 9 9 9 8 8 7 6 5 4 5 5 6 5 6 4 7
11 11 12 11 11 10 10 10 9 8 8 8 9 9 9 9 9 9 9 9 9 10 10 10 10 10 10 9 8 8 7 7 5 4 3 2 2 3 4 5 5 4 6
11 12 11 11 11 10 10 10 9 9 8 8 8 8 8 8 8 9 9 9 9 9 10 10 10 10 9 9 8 7 6 6 5 5 4 1 1 2 3 4 4 3 4
9 10 10 11 11 10 10 10 9 9 8 8 8 8 8 8 8 9 9 9 9 9 9 10 10 9 9 9 8 7 6 6 7 8 3 1 1 3 3 3 3 3 3
9 10 10 11 11 11 10 10 9 9 9 8 8 8 8 8 8 9 9 9 9 9 9 9 9 9 9 8 8 8 7 8 9 7 2 2 3 4 4 3 3 3 3
9 9 10 11 11 11 10 10 10 9 9 8 8 8 8 8 8 9 9 9 9 9 8 8 8 8 8 8 8 8 8 9 9 4 2 3 3 5 5 5 4 3 3
8 9 10 11 11 11 10 10 9 9 8 8 8 8 8 8 8 9 9 9 9 8 8 8 8 8 8 7 7 8 9 10 5 3 3 4 4 6 5 5 5 4 4
8 9 10 11 11 11 10 9 9 8 8 8 8 8 8 8 8 8 8 8 8 8 8 8 8 8 8 7 7 7 8 9 6 4 3 4 6 7 6 6 6 5 5
6 7 8 8 9 10 10 9 9 8 8 8 7 7 7 7 8 8 8 7 7 7 8 7 7 7 7 6 6 7 8 9 5 3 5 4 7 7 7 7 6 6 6
5 5 6 6 7 7 7 9 9 8 7 7 7 5 4 4 6 7 7 7 7 7 7 7 6 6 6 5 5 7 8 8 3 5 4 5 8 7 7 7 7 7 6
5 5 5 5 5 6 6 8 8 7 6 5 5 4 3 2 2 3 5 5 5 5 6 6 5 5 5 4 5 6 6 3 4 5 4 8 9 8 7 8 8 8 7
5 4 4 5 4 5 5 5 4 4 4 3 2 2 2 2 2 3 4 2 3 4 4 5 5 4 3 2 3 4 2 4 4 4 5 11 11 10 9 8 8 8 8
5 5 5 4 4 4 3 3 2 2 2 3 2 1 2 3 2 2 1 1 1 2 2 3 3 2 2 2 2 2 3 3 3 3 5 11 11 11 10 9 9 9 9
5 5 5 4 4 3 3 3 2 2 2 2 2 2 2 2 1 1 1 1 1 1 2 2 1 2 3 3 3 3 4 3 2 2 4 9 10 10 10 10 9 9 9
5 5 5 5 5 4 3 2 3 3 2 3 2 2 3 2 1 1 1 1 2 2 2 2 2 3 3 4 3 4 4 4 3 3 3 8 9 9 10 10 10 10 10
4 5 5 5 5 5 3 3 3 3 2 3 3 2 3 2 2 2 2 2 2 2 2 2 3 3 2 2 3 4 4 4 4 4 3 4 8 9 9 10 10 10 10
4 5 5 5 5 5 4 4 3 3 3 3 2 3 3 3 2 2 2 2 2 2 2 2 3 2 3 3 3 3 3 3 3 4 3 2 3 6 8 9 10 10 10
5 5 5 5 5 5 4 4 3 3 3 3 3 3 3 3 3 2 2 1 2 2 2 2 2 2 3 3 2 2 2 2 3 3 2 3 2 3 5 8 9 10 10
5 5 5 5 5 5 5 4 4 3 3 2 3 2 2 3 3 2 2 2 2 2 2 2 2 2 2 3 2 1 1 1 1 2 2 3 3 3 2 4 7 8 9
5 6 6 6 5 5 4 3 3 2 2 2 2 2 2 2 2 2 1 2 2 2 2 2 2 2 1 2 3 2 1 1 0 1 1 2 2 3 3 3 3 4 7
5 6 6 6 5 4 3 3 2 2 2 2 2 2 2 2 2 2 1 2 2 2 2 2 2 2 2 2 2 2 1 1 1 1 1 1 1 2 2 2 2 2 3
5 5 6 5 5 4 3 2 2 3 2 2 2 2 1 1 1 1 1 1 1 1 2 2 2 1 1 2 1 1 2 2 1 1 1 1 1 1 1 1 1 2 2
4 5 5 5 5 5 4 3 3 3 1 1 1 1 1 1 1 1 1 1 1 1 1 1 1 1 1 1 1 1 1 1 2 1 1 1 1 0 0 0 0 1 2
4 4 5 5 5 4 4 3 4 3 2 2 2 2 2 1 1 1 0 0 0 0 0 1 0 0 0 1 1 0 1 1 0 3 2 1 1 1 1 1 0 0 0
5 4 4 4 4 4 4 4 3 2 2 1 2 2 2 2 1 1 1 1 1 0 0 0 0 1 0 1 1 1 1 1 1 2 3 3 2 2 1 1 1 1 0
5 5 5 4 3 3 4 3 3 2 2 2 2 2 1 1 2 2 1 1 1 1 1 1 1 1 1 1 1 1 1 1 1 1 3 3 3 3 2 2 2 1 1
Wind_Direction
114 120 122 117 111 105 103 101 98 93 88 85 82 77 72 70 69 65 63 62 59 55 52 50 49 48 46 46 45 44 43 43 44 45 43 43 55 52 44 39 34 46 66
118 121 121 117 113 107 102 97 96 93 89 86 83 79 75 71 68 65 61 60 58 55 53 50 48 46 43 41 41 40 39 38 34 30 26 5 56 65 54 45 39 44 58
117 122 121 115 113 108 103 98 95 93 90 87 84 79 77 73 69 64 62 60 57 54 52 50 48 45 42 40 37 33 29 22 4 343 323 276 173 113 78 56 43 38 46
114 118 117 117 114 110 105 101 97 93 91 87 83 77 75 74 72 66 63 59 56 52 51 48 45 43 40 38 34 27 15 359 342 323 310 322 54 100 101 69 47 34 34
108 112 112 117 114 110 107 105 101 96 91 88 82 77 75 73 71 67 62 58 53 50 48 44 40 39 37 32 27 19 6 350 336 323 332 18 42 69 72 55 38 25 21
107 111 114 116 115 111 108 107 102 96 91 88 85 81 79 75 70 65 61 57 52 48 45 42 38 38 35 30 24 14 1 347 329 330 5 41 45 52 46 34 23 7 355
108 114 120 116 117 113 110 107 102 98 94 89 85 83 79 75 72 68 61 56 52 48 44 40 37 35 32 27 19 7 355 342 328 344 21 41 42 43 31 20 12 1 351
113 120 127 121 118 116 112 107 102 99 94 89 83 82 81 78 74 70 62 56 51 47 44 40 37 34 29 25 17 2 348 340 344 2 36 41 37 36 26 18 10 4 3
112 122 134 135 127 120 113 108 104 99 96 92 88 85 86 85 81 73 62 53 48 45 42 37 34 29 25 20 11 356 343 338 337 0 36 35 33 34 28 22 12 3 354
112 119 127 136 135 134 123 115 111 106 105 104 98 96 97 97 90 81 65 53 47 43 39 34 29 21 16 9 359 348 339 335 354 38 37 27 31 29 25 19 13 8 4
121 123 124 124 125 126 132 135 133 126 123 121 116 113 109 99 90 97 84 61 48 40 35 29 20 13 7 2 350 344 341 350 34 50 35 32 30 25 25 22 17 13 8
141 138 129 122 123 125 132 140 144 134 127 113 97 99 93 91 79 79 104 75 42 32 22 12 4 5 8 4 355 355 353 7 40 50 37 36 31 27 27 25 21 16 12
147 136 125 127 126 124 123 122 114 117 124 100 79 63 73 70 64 75 95 65 29 39 15 353 351 359 8 21 8 7 11 21 39 52 42 38 30 26 26 25 23 18 16
136 128 121 124 122 116 113 120 123 116 110 101 86 56 66 70 51 68 83 43 47 22 3 350 343 4 10 21 25 19 23 29 40 62 50 43 34 26 23 23 22 20 18
139 137 134 136 129 119 103 102 98 91 98 107 83 54 50 65 46 40 68 51 39 22 15 351 357 11 14 19 24 24 25 25 36 56 57 49 41 32 25 23 21 20 20
145 142 140 138 129 126 120 107 93 95 95 89 85 68 50 55 47 35 46 45 28 18 3 360 14 12 11 21 24 27 26 19 29 38 51 47 45 39 33 28 25 23 23
145 141 141 138 128 127 117 106 97 95 92 86 85 66 52 46 36 41 47 39 18 12 10 15 13 14 12 21 29 29 29 25 30 33 40 46 42 42 41 37 32 29 25
136 137 140 136 127 124 115 104 93 82 79 79 80 70 54 43 34 39 42 32 17 22 18 15 18 16 15 15 14 12 21 26 30 32 40 47 47 48 44 43 37 32 27
139 138 132 123 125 119 110 100 89 86 79 79 77 70 58 46 36 51 43 23 21 32 22 13 26 24 16 3 339 348 19 26 20 36 47 54 50 48 43 43 38 33 27
133 134 133 127 127 123 118 114 106 101 102 95 90 82 67 56 42 40 52 33 22 31 23 23 17 18 12 342 327 321 268 208 149 61 58 60 57 52 42 36 30 24 27
129 130 136 133 138 137 136 140 142 141 134 116 111 102 74 60 58 44 34 42 29 33 22 21 19 8 5 358 352 325 293 214 160 132 91 68 57 54 48 37 25 19 14
137 140 139 137 142 145 144 145 135 123 125 128 113 95 93 75 74 61 54 48 41 28 16 18 21 4 349 26 26 347 341 342 324 169 131 125 72 33 36 31 20 23 23
145 148 145 142 142 142 137 121 101 84 71 97 147 138 120 82 86 74 33 44 42 46 25 3 8 18 337 331 65 85 34 302 322 296 225 170 156 198 278 279 42 28 16
143 133 128 133 137 140 140 143 149 157 172 183 164 146 138 128 104 104 78 17 7 24 342 301 21 345 347 292 316 313 190 184 269 312 306 284 248 245 253 288 313 235 6
133 132 132 133 136 144 146 150 154 157 167 150 133 148 156 154 165 159 193 212 232 227 222 284 315 305 257 242 278 305 306 292 233 230 279 298 311 280 255 241 222 221 246
134 136 140 140 147 147 146 152 160 164 172 163 168 179 185 174 173 175 187 213 222 219 217 225 233 264 260 256 260 260 248 251 270 258 269 287 290 283 276 245 224 218 219